User: anonymous   Login
Location: Santa Barbara
(34.4500°N, 119.7700°W)
Time: 00:02:29
(UTC-07:00)
Language:

Cosmos 1892 Rocket - Orbit

View from above orbital plane
View from above orbital plane
View from above satellite
View from above satellite

Ground track
Ground track

The orbit data is extracted from the following two-line orbital elements,

1 18422U 87088B   14298.14941598  .00000772  00000-0  93027-4 0  3909
2 18422 082.5132 001.8955 0019953 025.0171 033.5757 14.82479481458668
Epoch (UTC): 25 October 2014 03:35:09
Eccentricity: 0.0019953
inclination: 82.5132°
perigee height: 607 km
apogee height: 635 km
right ascension of ascending node: 1.8955°
argument of perigee: 25.0171°
revolutions per day: 14.82479481
mean anomaly at epoch: 33.5757°
orbit number at epoch: 45866

The dashed part of the orbit path shows where the satellite is in the earth's shadow,  

DLR